Zurück zum Katalog

YZ-1 R/B

AktivMEO
NORAD 43003·ROCKET BODY·🇨🇳 China

Gestartet Nov 5, 2017 von Xichang Satellite Launch Center

Loading…

Nächste Überflüge (nächste 24 Stunden)

TLE

AktuellSource: Space-Track

Epoche: Sep 13, 2026, 21:54 UTC

1 43003U 17069C   26256.91266529 -.00000023  00000-0  00000-0 0  9990
2 43003  56.4081  68.2147 0037435  49.8904 310.4613  1.78953438 57895

Verfolge YZ-1 R/B in Echtzeit mit AllMySat

Download on the App Store